Location: *
(50.5492°N, 7.7469°E)
Time: 13:08:42
(UTC+00:00)

STARLINK-71 - Pass Details

Date: 21 October 2019
Orbit: 548 x 551 km, 53.0° (Epoch: 16 November)

Event Time Altitude Azimuth Distance (km) Brightness Sun altitude
Rises 17:47:16 0° 276° (W) 2,718 9.1 -13.6°
Reaches altitude 10° 17:49:32 10° 280° (W) 1,825 7.7 -14.0°
Maximum altitude 17:53:38 60° 1° (N) 632 3.9 -14.6°
Enters shadow 17:55:49 26° 73° (ENE) 1,107 4.6 -15.0°
